Weather History for New Bedford, MA

Change the Weather History Date:

Sunday, February 24, 2013

  Actual Average Record
Temperature  
Mean Temperature 37 °F -  
Max Temperature 42 °F 40 °F 50 °F (1953)
Min Temperature 32 °F 26 °F 4 °F (1972)
Degree Days  
Heating Degree Days 28    
Moisture  
Dew Point 35 °F    
Average Humidity 93    
Maximum Humidity 100    
Minimum Humidity 87    
Precipitation  
Precipitation 0.84 in - - ()
Sea Level Pressure  
Sea Level Pressure 29.73 in    
Wind  
Wind Speed 8 mph (North)    
Max Wind Speed 14 mph    
Max Gust Speed 22 mph    
Visibility 3 miles    
Events Rain , Snow    
Averages and records for this station are not official NWS values.
T = Trace of Precipitation, MM = Missing Value Source: NWS Daily Summary

Daily Weather History Graph

Daily Weather History Graph

Search for Another Location

Airport:

Trip Planner

Search our weather history database for the weather conditions in past years. The results will help you decide how hot, cold, wet, or windy it might be!

Date:

Astronomy

Feb. 24, 2013 Rise Set
Actual Time 6:26 AM EST 5:28 PM EST
Civil Twilight 5:57 AM EST 5:56 PM EST
Nautical Twilight 5:25 AM EST 6:28 PM EST
Astronomical Twilight 4:53 AM EST 7:01 PM EST
Moon 4:36 PM EST (2/24) 5:21 AM EST (2/24)
Length of Visible Light 11h 58m
Length of Day
11h 02m
Waxing Gibbous, 99% of the Moon is Illuminated
Feb 24
Waxing Gibbous
Feb 25
Full
Mar 4
Last Quarter
Mar 11
New
Mar 19
First Quarter

Hourly Weather History & Observations

Time (EST) Temp. Windchill Dew Point Humidity Pressure Visibility Wind Dir Wind Speed Gust Speed Precip Events Conditions
12:03 AM 37.4 °F 32.1 °F 35.6 °F 93% 29.85 in 4.0 mi NNE 6.9 mph - 0.00 in Rain Light Rain
12:53 AM 37.9 °F 31.5 °F 36.0 °F 93% 29.82 in 4.0 mi NE 9.2 mph - 0.04 in Rain Light Rain
1:00 AM 37.4 °F 30.8 °F 35.6 °F 93% 29.81 in 3.0 mi NNE 9.2 mph - 0.02 in Rain Rain
1:43 AM 37.4 °F 30.3 °F 37.4 °F 100% 29.79 in 4.0 mi NNE 10.4 mph - 0.04 in Rain Light Rain
1:53 AM 37.9 °F 30.5 °F 37.0 °F 97% 29.79 in 6.0 mi NE 11.5 mph - 0.04 in Rain Light Rain
2:14 AM 39.2 °F 31.2 °F 37.4 °F 93% 29.76 in 2.5 mi NE 13.8 mph - 0.00 in Rain Light Rain
2:53 AM 39.0 °F 32.8 °F 37.9 °F 96% 29.74 in 3.0 mi NNE 9.2 mph - 0.00 in Rain Light Rain
3:03 AM 39.2 °F 33.0 °F 37.4 °F 93% 29.73 in 2.5 mi NNE 9.2 mph - 0.02 in Rain Rain
3:45 AM 39.2 °F 33.0 °F 37.4 °F 93% 29.71 in 2.5 mi NE 9.2 mph - 0.07 in Rain Light Rain
3:53 AM 39.9 °F 33.4 °F 39.0 °F 97% 29.70 in 3.0 mi NE 10.4 mph - 0.07 in Rain Light Rain
4:53 AM 41.0 °F 34.3 °F 39.0 °F 93% 29.69 in 3.0 mi NNE 11.5 mph - 0.03 in Rain Light Rain
5:02 AM 41.0 °F 35.2 °F 39.2 °F 93% 29.69 in 2.5 mi NNE 9.2 mph - 0.01 in Rain Light Rain
5:53 AM 41.0 °F 35.8 °F 39.0 °F 93% 29.70 in 2.0 mi NE 8.1 mph - 0.06 in Rain Rain
6:04 AM 41.0 °F 37.1 °F 39.2 °F 93% 29.71 in 2.0 mi NNE 5.8 mph - 0.01 in Rain Rain
6:29 AM 39.2 °F 35.0 °F 39.2 °F 100% 29.69 in 3.0 mi North 5.8 mph - 0.04 in Rain Light Rain
6:42 AM 39.2 °F 35.0 °F 39.2 °F 100% 29.68 in 4.0 mi NNE 5.8 mph - 0.05 in Rain Light Rain
6:53 AM 39.9 °F 35.8 °F 39.0 °F 97% 29.68 in 4.0 mi NNE 5.8 mph - 0.05 in Rain Light Rain
7:53 AM 41.0 °F 35.2 °F 39.0 °F 93% 29.67 in 3.0 mi NNE 9.2 mph - 0.01 in Rain Light Rain
7:58 AM 41.0 °F 34.7 °F 39.2 °F 93% 29.67 in 1.8 mi NNE 10.4 mph 16.1 mph 0.00 in Rain Light Rain
8:05 AM 41.0 °F 34.3 °F 39.2 °F 93% 29.66 in 2.0 mi NNE 11.5 mph - 0.00 in Rain Light Rain
8:53 AM 41.0 °F 36.4 °F 39.9 °F 96% 29.66 in 2.0 mi North 6.9 mph - 0.00 in   Overcast
9:53 AM 41.0 °F 35.8 °F 39.9 °F 96% 29.63 in 1.5 mi North 8.1 mph - 0.00 in Rain Light Rain
10:53 AM 42.1 °F 36.6 °F 39.9 °F 92% 29.62 in 1.5 mi North 9.2 mph - 0.01 in Rain Light Rain
11:01 AM 42.8 °F 38.0 °F 39.2 °F 87% 29.62 in 1.8 mi North 8.1 mph - 0.01 in Rain Light Rain
11:53 AM 41.0 °F 35.2 °F 39.0 °F 93% 29.63 in 2.0 mi North 9.2 mph - 0.14 in Rain Rain
12:20 PM 39.2 °F 35.0 °F 39.2 °F 100% 29.64 in 4.0 mi NNW 5.8 mph - 0.06 in Rain Light Rain
12:27 PM 39.2 °F 33.6 °F 37.4 °F 93% 29.64 in 2.0 mi NW 8.1 mph - 0.07 in Rain Rain
12:53 PM 37.0 °F 31.0 °F 35.1 °F 93% 29.63 in 1.5 mi North 8.1 mph 18.4 mph 0.19 in Rain Heavy Rain
1:18 PM 35.6 °F 29.2 °F 33.8 °F 93% 29.62 in 3.0 mi North 8.1 mph 19.6 mph 0.14 in Rain Light Rain
1:53 PM 37.0 °F 31.0 °F 34.0 °F 89% 29.62 in 10.0 mi North 8.1 mph 19.6 mph 0.14 in   Overcast
2:53 PM 37.0 °F 28.5 °F 35.1 °F 93% 29.64 in 10.0 mi North 13.8 mph 21.9 mph 0.00 in   Overcast
3:17 PM 37.4 °F 30.8 °F 33.8 °F 87% 29.65 in 10.0 mi North 9.2 mph 21.9 mph N/A   Overcast
3:53 PM 36.0 °F 29.6 °F 33.1 °F 89% 29.66 in 10.0 mi North 8.1 mph 20.7 mph 0.00 in Rain Light Rain
4:15 PM 35.6 °F 27.5 °F 33.8 °F 93% 29.67 in 8.0 mi North 11.5 mph 20.7 mph 0.00 in Rain Light Rain
4:53 PM 35.1 °F 27.9 °F 33.1 °F 92% 29.68 in 6.0 mi North 9.2 mph 17.3 mph 0.00 in Rain Light Rain
5:23 PM 35.6 °F 29.2 °F 33.8 °F 93% 29.70 in 7.0 mi North 8.1 mph - 0.00 in   Overcast
5:53 PM 35.1 °F 31.0 °F 33.1 °F 92% 29.72 in 5.0 mi Variable 4.6 mph - 0.00 in   Overcast
6:53 PM 34.0 °F 28.0 °F 32.0 °F 92% 29.75 in 4.0 mi North 6.9 mph - 0.00 in Snow Light Snow
7:53 PM 33.1 °F 27.7 °F 32.0 °F 96% 29.79 in 2.5 mi NW 5.8 mph - 0.00 in Snow Light Snow
8:25 PM 33.8 °F 28.6 °F 30.2 °F 87% 29.80 in 1.5 mi NNW 5.8 mph - 0.01 in Snow Light Snow
8:48 PM 33.8 °F 28.6 °F 30.2 °F 87% 29.81 in 2.5 mi NNW 5.8 mph - 0.01 in Snow Light Snow
8:53 PM 33.1 °F 26.1 °F 30.9 °F 92% 29.82 in 2.0 mi NNW 8.1 mph - 0.01 in Snow Light Snow
9:05 PM 33.8 °F 29.6 °F 30.2 °F 87% 29.82 in 1.8 mi NNW 4.6 mph - 0.00 in Snow Light Snow
9:20 PM 33.8 °F 27.7 °F 30.2 °F 87% 29.82 in 1.5 mi North 6.9 mph - 0.00 in Snow Light Snow
9:44 PM 32.0 °F 23.6 °F 30.2 °F 93% 29.83 in 2.0 mi NNW 10.4 mph 16.1 mph 0.01 in Snow Light Snow
9:53 PM 32.0 °F 26.4 °F 30.0 °F 92% 29.84 in 2.5 mi NNW 5.8 mph 16.1 mph 0.01 in Snow Light Snow
10:01 PM 32.0 °F 25.6 °F 30.2 °F 93% 29.83 in 2.0 mi NNW 6.9 mph - 0.00 in Snow Light Snow
10:13 PM 32.0 °F 27.5 °F 30.2 °F 93% 29.84 in 1.5 mi Variable 4.6 mph - 0.00 in Snow Light Snow
10:25 PM 32.0 °F 27.5 °F 30.2 °F 93% 29.84 in 0.8 mi NNW 4.6 mph - 0.00 in Snow Light Snow
10:32 PM 32.0 °F 26.4 °F 30.2 °F 93% 29.84 in 0.8 mi NNW 5.8 mph - 0.00 in Snow Light Snow
10:53 PM 32.0 °F 26.4 °F 30.0 °F 92% 29.85 in 0.8 mi NNW 5.8 mph - 0.01 in Snow Light Snow
11:06 PM 32.0 °F 26.4 °F 30.2 °F 93% 29.85 in 1.0 mi Variable 5.8 mph - 0.01 in Snow Light Snow
11:53 PM 32.0 °F 27.5 °F 30.0 °F 92% 29.86 in 1.8 mi North 4.6 mph - 0.03 in Snow Light Snow
11:55 PM 32.0 °F 26.4 °F 30.2 °F 93% 29.86 in 2.0 mi NNW 5.8 mph - 0.00 in Snow Light Snow